Weather History for Worcester, MA

Change the Weather History Date:

Friday, September 13, 2013

  Actual Average Record
Temperature  
Mean Temperature 65 °F 62 °F  
Max Temperature 74 °F 71 °F 89 °F (1957)
Min Temperature 56 °F 54 °F 33 °F (1943)
Degree Days  
Heating Degree Days 0 4  
Month to date heating degree days 31 37  
Since 1 July heating degree days 50 76  
Cooling Degree Days 0 1  
Month to date cooling degree days 40 29  
Year to date cooling degree days 571 455  
Growing Degree Days 15 (Base 50)    
Moisture  
Dew Point 60 °F    
Average Humidity 82    
Maximum Humidity 100    
Minimum Humidity 64    
Precipitation  
Precipitation 0.06 in 0.13 in 2.57 in (1974)
Month to date precipitation 2.73 1.51  
Year to date precipitation 35.75 32.87  
Sea Level Pressure  
Sea Level Pressure 29.68 in    
Wind  
Wind Speed 8 mph (WNW)    
Max Wind Speed 21 mph    
Max Gust Speed 28 mph    
Visibility 10 miles    
Events Rain    
T = Trace of Precipitation, MM = Missing Value Source: NWS Daily Summary

Daily Weather History Graph

Daily Weather History Graph

Search for Another Location

Airport:

Trip Planner

Search our weather history database for the weather conditions in past years. The results will help you decide how hot, cold, wet, or windy it might be!

Date:

Astronomy

Sep. 13, 2013 Rise Set
Actual Time 6:25 AM EDT 7:00 PM EDT
Civil Twilight 5:57 AM EDT 7:28 PM EDT
Nautical Twilight 5:23 AM EDT 8:01 PM EDT
Astronomical Twilight 4:49 AM EDT 8:36 PM EDT
Moon 2:52 PM EDT (9/13) No Moon Set
Length of Visible Light 13h 31m
Length of Day
12h 34m
First Quarter, 61% of the Moon is Illuminated
Sep 13
First Quarter
Sep 19
Full
Sep 26
Last Quarter
Oct 4
New
Oct 11
First Quarter

Hourly Weather History & Observations

Time (EDT) Temp. Dew Point Humidity Pressure Visibility Wind Dir Wind Speed Gust Speed Precip Events Conditions
12:06 AM 64.9 °F 64.9 °F 100% 29.71 in 4.0 mi SSE 8.1 mph - 0.00 in Rain Light Rain
12:54 AM 64.9 °F 64.9 °F 100% 29.69 in 8.0 mi SW 4.6 mph - 0.00 in   Overcast
1:44 AM 66.0 °F 64.9 °F 96% 29.70 in 10.0 mi WSW 5.8 mph - N/A   Overcast
1:54 AM 66.0 °F 64.9 °F 96% 29.68 in 10.0 mi SW 5.8 mph - N/A   Overcast
2:43 AM 64.9 °F 64.0 °F 97% 29.67 in 10.0 mi SW 4.6 mph - N/A   Overcast
2:54 AM 64.9 °F 64.0 °F 97% 29.65 in 10.0 mi SW 6.9 mph - N/A   Overcast
3:27 AM 64.9 °F 64.0 °F 97% 29.65 in 10.0 mi SW 5.8 mph - N/A   Mostly Cloudy
3:54 AM 64.9 °F 64.0 °F 97% 29.63 in 10.0 mi West 4.6 mph - N/A   Overcast
4:10 AM 64.9 °F 64.0 °F 97% 29.65 in 10.0 mi West 4.6 mph - N/A   Overcast
4:42 AM 64.9 °F 64.0 °F 97% 29.64 in 10.0 mi West 4.6 mph - N/A   Overcast
4:54 AM 64.9 °F 64.0 °F 97% 29.64 in 10.0 mi West 5.8 mph - N/A   Overcast
5:10 AM 64.0 °F 63.0 °F 96% 29.65 in 10.0 mi WSW 5.8 mph - 0.00 in Rain Light Rain
5:54 AM 64.0 °F 63.0 °F 96% 29.64 in 10.0 mi West 5.8 mph - 0.00 in Rain Light Rain
6:54 AM 64.0 °F 63.0 °F 96% 29.65 in 5.0 mi West 5.8 mph - 0.04 in Rain Rain
7:54 AM 64.9 °F 63.0 °F 93% 29.65 in 10.0 mi West 5.8 mph - 0.02 in   Overcast
8:54 AM 64.9 °F 64.0 °F 97% 29.65 in 10.0 mi West 10.4 mph - N/A   Overcast
9:54 AM 66.0 °F 63.0 °F 90% 29.65 in 10.0 mi Calm Calm - N/A   Overcast
10:12 AM 66.9 °F 63.0 °F 87% 29.66 in 10.0 mi West 5.8 mph - N/A   Overcast
10:45 AM 68.0 °F 63.0 °F 84% 29.65 in 10.0 mi WNW 8.1 mph - N/A   Mostly Cloudy
10:54 AM 69.1 °F 63.0 °F 81% 29.65 in 10.0 mi West 6.9 mph - N/A   Mostly Cloudy
11:54 AM 72.0 °F 62.1 °F 71% 29.63 in 10.0 mi Variable 5.8 mph - N/A   Partly Cloudy
12:54 PM 73.9 °F 61.0 °F 64% 29.62 in 10.0 mi WNW 9.2 mph - N/A   Partly Cloudy
1:54 PM 73.0 °F 60.1 °F 64% 29.61 in 10.0 mi WNW 11.5 mph - N/A   Clear
2:54 PM 72.0 °F 61.0 °F 68% 29.62 in 10.0 mi WNW 11.5 mph - N/A   Scattered Clouds
3:54 PM 70.0 °F 61.0 °F 73% 29.63 in 10.0 mi NW 9.2 mph - N/A   Clear
4:00 PM 70.0 °F 60.1 °F 71% 29.64 in 10.0 mi NW 10.4 mph - N/A   Mostly Cloudy
4:25 PM 64.9 °F 60.1 °F 84% 29.66 in 10.0 mi NNW 11.5 mph 23.0 mph 0.00 in Rain Light Rain
4:54 PM 66.0 °F 59.0 °F 78% 29.65 in 10.0 mi NW 11.5 mph - 0.00 in   Partly Cloudy
5:54 PM 64.9 °F 57.9 °F 78% 29.67 in 10.0 mi NW 10.4 mph - N/A   Partly Cloudy
6:54 PM 62.1 °F 55.9 °F 80% 29.71 in 10.0 mi NNW 11.5 mph - N/A   Overcast
7:54 PM 60.1 °F 55.9 °F 86% 29.74 in 10.0 mi NW 6.9 mph - N/A   Clear
8:54 PM 59.0 °F 55.0 °F 87% 29.76 in 10.0 mi NW 9.2 mph - N/A   Mostly Cloudy
9:54 PM 57.9 °F 55.0 °F 90% 29.77 in 10.0 mi NW 10.4 mph - N/A   Overcast
10:51 PM 57.2 °F 53.6 °F 88% 29.78 in 10.0 mi NW 9.2 mph - N/A   Overcast
10:54 PM 57.0 °F 53.1 °F 87% 29.78 in 10.0 mi NW 10.4 mph - N/A   Overcast
11:22 PM 57.0 °F 53.1 °F 87% 29.78 in 10.0 mi NNW 8.1 mph - N/A   Overcast
11:30 PM 57.0 °F 53.1 °F 87% 29.79 in 10.0 mi NW 5.8 mph - N/A   Overcast
11:45 PM 57.0 °F 53.1 °F 87% 29.79 in 10.0 mi NW 9.2 mph - N/A   Overcast
11:54 PM 57.0 °F 52.0 °F 83% 29.79 in 10.0 mi NNW 9.2 mph - N/A   Mostly Cloudy